Home   Weather   Atascadero   Past weeks

Flag for USA Past Weather in Atascadero, California, USA — Yesterday and Last 2 Weeks

Now
94 °F

Sunny.


Feels Like: 90 °F
Forecast: 56 / 85 °F
Wind: 6 mph from Northwest

Location: Paso Robles Municipal Airport

Current Time: Aug 31, 2016 at 4:44:18 PM

Latest Report: Aug 31, 2016 at 3:53 PM


Visibility: 10 mi

Pressure: 29.82 "Hg

Humidity: 19%

Dew Point: 45 °F

Location of AtascaderoLocation

Past Weather in Atascadero — Graph

°F

Atascadero Temperature Yesterday

Maximum temperature yesterday: 96 °F (at 3:53 PM)
Minimum temperature yesterday: 57 °F (at 6:53 AM)
Average temperature yesterday: 74 °F

High & Low Weather Summary for the Past Weeks

 TemperatureHumidityPressure
High100 °F (Aug 29, 3:53 PM)97% (Aug 24, 7:53 AM)30.09 "Hg (Aug 24, 7:53 AM)
Low51 °F (Aug 19, 6:53 AM)8% (Aug 17, 3:53 PM)29.76 "Hg (Aug 17, 4:53 PM)
Average70 °F55%29.92 "Hg
* Reported Aug 16 2:53 PM — Aug 31 2:53 PM, Atascadero, Weather by CustomWeather, © 2016

Note: Actual official high and low records may vary slightly from our data, if they occured in-between our weather recording intervals... More about our weather records

Advertising

Atascadero Weather History for the Previous 24 Hours

Scroll right to see more
 ConditionsComfort  
Time TempWeatherWind HumidityBarometerVisibility
2:53 PM
Wed, Aug 31
92 °FSunny.10 mph20%29.83 "Hg10 mi
1:53 PM89 °FSunny.8 mph22%29.85 "Hg10 mi
12:53 PM86 °FSunny.8 mph27%29.88 "Hg10 mi
11:53 AM83 °FSunny.12 mph32%29.90 "Hg10 mi
10:53 AM76 °FSunny.6 mph42%29.91 "Hg10 mi
9:53 AM71 °FSunny.7 mph49%29.92 "Hg10 mi
8:53 AM64 °FSunny.7 mph63%29.92 "Hg10 mi
7:53 AM60 °FSunny.3 mph69%29.91 "Hg10 mi
6:53 AM57 °FClear.No wind74%29.90 "Hg10 mi
5:53 AM57 °FClear.No wind72%29.88 "Hg10 mi
4:53 AM58 °FClear.5 mph72%29.88 "Hg10 mi
3:53 AM60 °FClear.5 mph67%29.88 "Hg10 mi
2:53 AM62 °FClear.7 mph62%29.88 "Hg10 mi
1:53 AM64 °FClear.9 mph58%29.88 "Hg10 mi
12:53 AM65 °FClear.10 mph56%29.88 "Hg10 mi
11:53 PM
Tue, Aug 30
67 °FClear.14 mph53%29.88 "Hg10 mi
10:53 PM70 °FClear.15 mph47%29.88 "Hg10 mi
9:53 PM72 °FClear.18 mph44%29.88 "Hg10 mi
8:53 PM75 °FClear.16 mph40%29.86 "Hg10 mi
7:53 PM79 °FSunny.15 mph32%29.84 "Hg10 mi
6:53 PM85 °FSunny.12 mph24%29.82 "Hg10 mi
5:53 PM92 °FSunny.17 mph16%29.81 "Hg10 mi
4:53 PM96 °FSunny.14 mph13%29.82 "Hg10 mi
Weather by CustomWeather, © 2016

See weather overviewHow to use our weather pages